| time (UTC) | temp F | wind direction | speed knots | gust knots | rain 1hr in | rain 24hr in | rain mn in | humidity % | barometer mb |
| 20260505093207 | 58 | 208 | 0.9 | 1.7 | 0.00 | 0.00 | 0.00 | 80 | 1021.3 |
| 20260505092710 | 58 | 207 | 0.0 | 1.7 | 0.00 | 0.00 | 0.00 | 80 | 1021.3 |
| 20260505091711 | 58 | 203 | 0.0 | 1.7 | 0.00 | 0.00 | 0.00 | 80 | 1021.3 |
| 20260505091206 | 58 | 186 | 0.0 | 1.7 | 0.00 | 0.00 | 0.00 | 81 | 1021.3 |
| 20260505090709 | 58 | 181 | 1.7 | 2.6 | 0.00 | 0.00 | 0.00 | 81 | 1021.3 |
| 20260505090206 | 57 | 175 | 0.0 | 1.7 | 0.00 | 0.00 | 0.00 | 81 | 1021.3 |
| 20260505085707 | 57 | 210 | 0.0 | 0.9 | 0.00 | 0.00 | 0.00 | 82 | 1021.3 |
| 20260505085206 | 57 | 192 | 0.0 | 0.9 | 0.00 | 0.00 | 0.00 | 82 | 1021.3 |
| 20260505084706 | 57 | 170 | 0.0 | 0.9 | 0.00 | 0.00 | 0.00 | 82 | 1021.3 |
| 20260505084215 | 56 | 185 | 0.0 | 1.7 | 0.00 | 0.00 | 0.00 | 83 | 1021.3 |
| 20260505083708 | 56 | 217 | 0.9 | 1.7 | 0.00 | 0.00 | 0.00 | 83 | 1021.3 |
| 20260505083209 | 56 | 195 | 0.9 | 1.7 | 0.00 | 0.00 | 0.00 | 83 | 1021.3 |
| 20260505082709 | 56 | 190 | 0.9 | 1.7 | 0.00 | 0.00 | 0.00 | 83 | 1021.3 |
| 20260505082213 | 55 | 206 | 0.0 | 0.9 | 0.00 | 0.00 | 0.00 | 83 | 1021.3 |
| 20260505081708 | 55 | 188 | 0.0 | 0.0 | 0.00 | 0.00 | 0.00 | 83 | 1021.3 |
| 20260505080706 | 55 | 184 | 0.0 | 0.0 | 0.00 | 0.00 | 0.00 | 82 | 1021.3 |
| 20260505080207 | 55 | 183 | 0.9 | 0.9 | 0.00 | 0.00 | 0.00 | 81 | 1021.3 |
| 20260505075207 | 55 | 155 | 0.0 | 0.0 | 0.00 | 0.00 | 0.00 | 80 | 1021.3 |
| 20260505074708 | 55 | 155 | 0.0 | 0.0 | 0.00 | 0.00 | 0.00 | 79 | 1021.3 |
| 20260505074207 | 55 | 155 | 0.0 | 0.0 | 0.00 | 0.00 | 0.00 | 79 | 1021.3 |
| 20260505073706 | 55 | 155 | 0.0 | 0.9 | 0.00 | 0.00 | 0.00 | 77 | 1021.3 |
| 20260505072207 | 56 | 154 | 0.0 | 0.0 | 0.00 | 0.00 | 0.00 | 76 | 1021.3 |
| 20260505071707 | 56 | 154 | 0.0 | 0.0 | 0.00 | 0.00 | 0.00 | 76 | 1021.3 |
| 20260505070706 | 57 | 154 | 0.0 | 0.0 | 0.00 | 0.00 | 0.00 | 75 | 1021.3 |
| 20260505070206 | 57 | 154 | 0.0 | 0.0 | 0.00 | 0.00 | 0.00 | 75 | 1021.3 |
| 20260505065708 | 57 | 154 | 0.0 | 0.0 | 0.00 | 0.00 | 0.00 | 75 | 1021.3 |
| 20260505065208 | 57 | 154 | 0.0 | 0.0 | 0.00 | 0.00 | 0.00 | 75 | 1021.3 |
| 20260505064705 | 57 | 154 | 0.0 | 0.0 | 0.00 | 0.00 | 0.00 | 75 | 1021.3 |
| 20260505064207 | 58 | 154 | 0.9 | 0.9 | 0.00 | 0.00 | 0.00 | 76 | 1021.3 |
| 20260505063707 | 58 | 153 | 0.9 | 0.9 | 0.00 | 0.00 | 0.00 | 75 | 1021.3 |
| 20260505063207 | 58 | 153 | 0.9 | 1.7 | 0.00 | 0.00 | 0.00 | 75 | 1021.3 |
| 20260505062708 | 58 | 170 | 0.0 | 1.7 | 0.00 | 0.00 | 0.00 | 75 | 1021.3 |
| 20260505062206 | 58 | 174 | 0.0 | 1.7 | 0.00 | 0.00 | 0.00 | 75 | 1021.3 |
| 20260505061709 | 58 | 176 | 0.9 | 1.7 | 0.00 | 0.00 | 0.00 | 75 | 1021.3 |
| 20260505061206 | 58 | 174 | 0.9 | 2.6 | 0.00 | 0.00 | 0.00 | 75 | 1021.3 |
| 20260505060706 | 58 | 170 | 0.9 | 2.6 | 0.00 | 0.00 | 0.00 | 74 | 1021.3 |
| 20260505060210 | 58 | 184 | 0.9 | 2.6 | 0.00 | 0.00 | 0.00 | 74 | 1021.3 |
| 20260505055707 | 58 | 187 | 1.7 | 2.6 | 0.00 | 0.00 | 0.00 | 74 | 1021.3 |
| 20260505055207 | 58 | 188 | 0.9 | 2.6 | 0.00 | 0.00 | 0.00 | 73 | 1021.3 |
| 20260505054707 | 59 | 155 | 0.9 | 1.7 | 0.00 | 0.00 | 0.00 | 73 | 1021.3 |
| 20260505054206 | 59 | 190 | 0.9 | 1.7 | 0.00 | 0.00 | 0.00 | 73 | 1021.3 |
| 20260505053207 | 59 | 204 | 0.0 | 2.6 | 0.00 | 0.00 | 0.00 | 71 | 1021.3 |
| 20260505052706 | 59 | 208 | 0.0 | 1.7 | 0.00 | 0.00 | 0.00 | 71 | 1021.3 |
| 20260505051706 | 59 | 175 | 0.9 | 1.7 | 0.00 | 0.00 | 0.00 | 71 | 1021.3 |
| 20260505051209 | 59 | 182 | 0.9 | 2.6 | 0.00 | 0.00 | 0.00 | 71 | 1021.3 |
| 20260505050708 | 59 | 173 | 0.9 | 2.6 | 0.00 | 0.00 | 0.00 | 71 | 1021.3 |
| 20260505050208 | 59 | 184 | 1.7 | 2.6 | 0.00 | 0.00 | 0.00 | 71 | 1021.3 |
| 20260505041708 | 58 | 182 | 0.9 | 1.7 | 0.00 | 0.00 | 0.00 | 69 | 1021.3 |
| 20260505041206 | 58 | 186 | 0.9 | 1.7 | 0.00 | 0.00 | 0.00 | 69 | 1021.3 |
| 20260505040707 | 58 | 175 | 0.9 | 2.6 | 0.00 | 0.00 | 0.00 | 68 | 1021.3 |
| 20260505040207 | 58 | 211 | 0.9 | 1.7 | 0.00 | 0.00 | 0.00 | 68 | 1021.3 |
| 20260505035707 | 59 | 232 | 0.9 | 1.7 | 0.00 | 0.00 | 0.00 | 67 | 1021.3 |
| 20260505035207 | 59 | 177 | 0.9 | 1.7 | 0.00 | 0.00 | 0.00 | 67 | 1021.3 |
| 20260505034707 | 59 | 183 | 0.9 | 1.7 | 0.00 | 0.00 | 0.00 | 67 | 1021.3 |
| 20260505034208 | 59 | 182 | 0.9 | 1.7 | 0.00 | 0.00 | 0.00 | 67 | 1021.3 |
| 20260505033708 | 59 | 179 | 0.9 | 1.7 | 0.00 | 0.00 | 0.00 | 66 | 1021.3 |
| 20260505032710 | 59 | 207 | 1.7 | 2.6 | 0.00 | 0.00 | 0.00 | 66 | 1021.3 |
| 20260505031712 | 59 | 181 | 0.9 | 0.9 | 0.00 | 0.00 | 0.00 | 65 | 1021.3 |
| 20260505030710 | 59 | 209 | 1.7 | 2.6 | 0.00 | 0.00 | 0.00 | 65 | 1021.3 |
| 20260505030206 | 59 | 204 | 1.7 | 2.6 | 0.00 | 0.00 | 0.00 | 65 | 1021.3 |
| 20260505025709 | 59 | 181 | 1.7 | 2.6 | 0.00 | 0.00 | 0.00 | 65 | 1021.3 |
| 20260505025211 | 59 | 185 | 0.9 | 2.6 | 0.00 | 0.00 | 0.00 | 65 | 1021.3 |
| 20260505024708 | 59 | 185 | 1.7 | 1.7 | 0.00 | 0.00 | 0.00 | 65 | 1021.3 |
| 20260505020206 | 60 | 173 | 0.9 | 2.6 | 0.00 | 0.00 | 0.00 | 63 | 1021.3 |
| 20260505015207 | 60 | 190 | 0.9 | 2.6 | 0.00 | 0.00 | 0.00 | 62 | 1021.3 |
| 20260505013219 | 61 | 198 | 0.9 | 2.6 | 0.00 | 0.00 | 0.00 | 60 | 1021.3 |
| 20260505012219 | 62 | 189 | 0.0 | 2.6 | 0.00 | 0.00 | 0.00 | 58 | 1021.3 |
| 20260505011210 | 62 | 177 | 0.0 | 0.9 | 0.00 | 0.00 | 0.00 | 56 | 1021.3 |
| 20260505010706 | 62 | 177 | 0.0 | 0.9 | 0.00 | 0.00 | 0.00 | 56 | 1021.3 |
| 20260505010215 | 63 | 183 | 0.9 | 1.7 | 0.00 | 0.00 | 0.00 | 54 | 1021.3 |
| 20260505003711 | 63 | 199 | 1.7 | 2.6 | 0.00 | 0.00 | 0.00 | 52 | 1021.3 |
| 20260505001717 | 64 | 186 | 0.9 | 2.6 | 0.00 | 0.00 | 0.00 | 49 | 1021.3 |
| 20260505000211 | 65 | 174 | 1.7 | 4.3 | 0.00 | 0.00 | 0.00 | 47 | 1021.3 |
| 20260504232218 | 68 | 184 | 1.7 | 6.1 | 0.00 | 0.00 | 0.00 | 45 | 1021.3 |
| 20260504224708 | 69 | 210 | 1.7 | 6.1 | 0.00 | 0.00 | 0.00 | 44 | 1021.3 |
| 20260504224207 | 69 | 195 | 0.9 | 2.6 | 0.00 | 0.00 | 0.00 | 44 | 1021.3 |
| 20260504223707 | 70 | 186 | 0.9 | 6.1 | 0.00 | 0.00 | 0.00 | 43 | 1021.3 |
| 20260504220713 | 71 | 171 | 1.7 | 2.6 | 0.00 | 0.00 | 0.00 | 42 | 1021.3 |
| 20260504215210 | 71 | 199 | 4.3 | 7.0 | 0.00 | 0.00 | 0.00 | 40 | 1021.3 |
| 20260504213715 | 74 | 191 | 2.6 | 7.0 | 0.00 | 0.00 | 0.00 | 38 | 1021.3 |
| 20260504212719 | 74 | 207 | 2.6 | 7.0 | 0.00 | 0.00 | 0.00 | 35 | 1021.3 |
| 20260504210712 | 74 | 218 | 1.7 | 6.1 | 0.00 | 0.00 | 0.00 | 29 | 1021.3 |
| 20260504210213 | 74 | 220 | 1.7 | 4.3 | 0.00 | 0.00 | 0.00 | 29 | 1021.3 |
| 20260504203716 | 74 | 218 | 1.7 | 5.2 | 0.00 | 0.00 | 0.00 | 29 | 1021.3 |
| 20260504202221 | 74 | 222 | 2.6 | 5.2 | 0.00 | 0.00 | 0.00 | 28 | 1021.3 |
| 20260504192218 | 76 | 244 | 1.7 | 4.3 | 0.00 | 0.00 | 0.00 | 27 | 1021.3 |
| 20260504190207 | 76 | 204 | 1.7 | 4.3 | 0.00 | 0.00 | 0.00 | 27 | 1021.3 |
| 20260504180209 | 75 | 238 | 1.7 | 5.2 | 0.00 | 0.00 | 0.00 | 29 | 1021.3 |
| 20260504175707 | 75 | 229 | 1.7 | 5.2 | 0.00 | 0.00 | 0.00 | 29 | 1021.3 |
| 20260504173706 | 74 | 239 | 2.6 | 4.3 | 0.00 | 0.00 | 0.00 | 29 | 1021.3 |
| 20260504150209 | 67 | 206 | 1.7 | 4.3 | 0.00 | 0.00 | 0.00 | 39 | 1021.3 |
| 20260504140206 | 65 | 225 | 4.3 | 8.7 | 0.00 | 0.00 | 0.00 | 40 | 1021.3 |
| 20260504120206 | 51 | 200 | 1.7 | 4.3 | 0.00 | 0.00 | 0.00 | 72 | 1021.3 |
| 20260504100217 | 46 | 202 | 1.7 | 2.6 | 0.00 | 0.00 | 0.00 | 70 | 1021.3 |